#timestamp,LO_Frequency,Hit,StdDev 
1514955615.5,286047000.0,N
1514955635.3,286047001.1,N
1514955655.1,286046998.9,N
1514955675.9,286046999.3,N
1514955695.7,286046996.9,N
1514955715.5,286046999.2,N
1514955735.4,286047001.1,N
1514955755.2,286047001.1,N
1514955775.1,286047001.1,N
1514955776.0,286047001.1,N
1514955795.8,286046996.5,N
1514955815.6,286046997.2,N
1514955835.5,286046996.9,N
1514955855.3,286046999.7,N
1514955875.2,286047001.0,N
1514955895.9,286047000.6,N
1514955915.7,286047000.7,N
1514955935.6,286046998.7,N
1514955955.4,286046999.6,N
1514955975.3,286046997.1,N
1514955995.1,286046999.1,N
1514955996.0,286046999.1,N
1514956015.8,286046999.0,N
1514956035.7,286046997.1,N
1514956055.5,286046997.1,N
1514956075.3,286046998.4,N
1514956095.2,286047002.4,N
1514956115.0,286047000.5,N
1514956115.9,286047000.5,N
1514956135.8,286047001.7,N
1514956155.6,286047004.3,N
1514956175.4,286047004.3,N
1514956195.3,286047004.1,N
1514956215.1,286047003.5,N
1514956235.9,286047003.3,N
1514956255.7,286047001.5,N
1514956275.5,286047004.4,N
1514956295.4,286047001.3,N
1514956315.5,286046999.7,N
1514956335.4,286047001.6,N
1514956355.2,286047000.9,N
1514956375.1,286047000.7,N
1514956376.0,286047000.7,N
1514956395.8,286047002.4,N
1514956415.6,286047001.9,N
1514956435.5,286047000.9,N
1514956455.3,286047000.7,N
1514956475.1,286047001.0,N
1514956495.9,286047000.7,N
1514956515.7,286047000.5,N
1514956535.6,286046999.7,N
1514956555.4,286047001.4,N
1514956575.2,286047004.0,N
1514956595.1,286047002.1,N
1514956626.0,286047003.8,E
1514956635.0,286047001.3,N
1514956635.9,286047001.3,P
1514956655.8,286046999.0,P
1514956675.6,286046998.6,N
1514956695.4,286047001.1,N
1514956715.3,286047000.6,N
1514956735.1,286046999.0,N
1514956755.9,286046996.9,N
1514956775.7,286046999.1,N
1514956795.5,286046999.2,N
1514956815.4,286046998.6,N
1514956835.2,286046996.5,N
1514956855.0,286046999.5,N
1514956855.9,286046999.5,N
1514956875.8,286046999.5,N
1514956895.6,286046999.3,N
1514956915.5,286047000.7,N
1514956935.3,286047002.8,N
1514956955.1,286047003.9,N
1514956975.9,286047003.9,N
1514956995.7,286047004.0,N
1514957015.5,286047003.9,N
1514957035.4,286047002.2,N
1514957055.2,286046999.8,N
1514957075.1,286047001.7,N
1514957076.0,286047001.7,N
1514957095.8,286047000.8,N
1514957115.6,286047001.1,N
1514957135.5,286046999.0,N
1514957155.3,286046999.4,N
1514957175.2,286046995.4,N
1514957195.9,286046997.7,N
1514957215.7,286047000.0,N
1514957235.6,286047000.9,N
1514957255.4,286047001.2,N
1514957275.2,286046998.9,N
1514957295.1,286046998.2,N
1514957296.0,286046998.2,N
1514957315.8,286046999.3,N
1514957335.7,286047001.0,N
1514957355.5,286047000.4,N
1514957375.3,286047002.6,N
1514957395.2,286047002.5,N
1514957415.0,286047002.5,N
1514957415.9,286047002.5,N
1514957435.7,286047000.2,N
1514957455.6,286047002.4,N
1514957475.4,286047002.4,N
1514957495.3,286047002.1,N
1514957515.1,286047004.4,N
1514957516.0,286047004.4,N
1514957535.8,286047003.9,N
1514957555.7,286047005.5,N
1514957575.5,286047004.1,N
1514957595.4,286047002.1,N
1514957615.2,286047000.5,N
1514957635.0,286047002.2,N
1514957635.9,286047002.2,N
1514957655.8,286047001.4,N
1514957675.6,286047004.2,N
1514957695.5,286047004.0,N
1514957715.3,286047005.8,N
1514957735.1,286047001.5,N
1514957755.9,286047002.3,N
1514957775.7,286047001.7,N
1514957795.5,286047002.5,N
1514957815.4,286047002.3,N
1514957835.2,286047000.7,N
1514957855.1,286046998.4,N
1514957856.0,286046998.4,N
1514957875.8,286047002.2,N
1514957895.6,286047005.8,Y
1514957915.5,286047000.5,P
1514957935.3,286047001.6,N
1514957955.2,286047001.7,N
1514957975.9,286047000.7,N
1514957995.7,286046999.6,N
1514958015.6,286046997.0,Y
1514958035.4,286047001.2,P
1514958055.2,286046997.2,P
1514958075.1,286046997.3,N
1514958076.0,286046997.3,N
1514958095.8,286046995.5,N
1514958115.7,286046995.9,N
1514958135.5,286046993.9,N
1514958155.3,286046994.0,N
1514958175.2,286046995.8,N
1514958195.0,286046995.6,N
1514958195.9,286046995.6,N
1514958215.8,286046997.5,N
1514958235.6,286046997.0,N
1514958255.4,286046999.3,N
1514958275.3,286046999.6,N
1514958295.1,286046998.8,N
1514958315.8,286047001.2,N
1514958335.7,286047000.7,N
1514958355.5,286046999.9,N
1514958375.4,286047002.6,N
1514958395.2,286047002.7,N
1514958415.0,286047002.6,N
1514958415.9,286047002.6,N
1514958435.8,286046998.9,N
1514958455.6,286047000.3,N
1514958475.4,286047000.9,N
1514958495.3,286047000.2,N
1514958515.1,286047000.3,N
1514958535.9,286047000.6,N
1514958555.7,286046996.6,N
1514958575.5,286046996.6,N
1514958595.4,286046998.6,N
1514958615.2,286046999.3,N
1514958635.1,286047011.9,Y
1514958636.0,286046998.9,P
1514958655.8,286046999.7,N
1514958675.6,286047002.2,P
1514958695.5,286046998.7,N
1514958715.3,286046997.0,N
1514958735.2,286046997.2,N
1514958755.0,286046999.6,N
1514958755.9,286046999.6,N
1514958775.7,286046998.4,N
1514958795.5,286047004.4,Y
1514958815.3,286047002.0,P
1514958835.2,286047002.1,N
1514958855.0,286047004.0,N
1514958855.9,286047004.0,N
1514958875.8,286047005.9,Y
1514958895.6,286047001.5,P
1514958915.4,286047001.6,P
1514958935.3,286047000.6,N
1514958955.1,286047001.4,N
1514958975.8,286047000.3,N
1514958995.7,286046999.8,N
1514959015.5,286047002.4,Y
1514959065.4,286046998.7,E
1514959075.3,286047000.2,N
1514959095.1,286047003.1,P
1514959115.9,286047004.4,P
1514959135.7,286047003.9,N
1514959155.5,286047002.5,N
1514959175.4,286047003.1,N
1514959195.2,286047002.5,N
